Location: Karaa?a�
(36.7158°N, 30.4165°E)
Time: 01:11:02
(UTC+00:00)

MOS 1 Rocket - Pass Details

Date: 09 April 2020
Orbit: 615 x 830 km, 97.4° (Epoch: 24 May)

Event Time Altitude Azimuth Distance (km) Brightness Sun altitude
Rises 17:38:48 0° 19° (NNE) 3,363 6.9 -14.5°
Reaches altitude 10° 17:41:17 10° 26° (NNE) 2,437 6.1 -14.9°
Maximum altitude 17:46:28 44° 97° (E) 1,133 3.9 -15.9°
Drops below altitude 10° 17:51:35 10° 169° (S) 2,408 5.7 -16.8°
Enters shadow 17:52:36 - 173° (S) 2,784 6.1 -17.0°
